Regional Weather Roundup
Issued by NWS

Home | Current Version | Previous Version | Text Only | Print | Product List | Glossary On
Versions: 1 2 3 4 5 6 7 8 9 10 11 12 13 14 15 16 17 18 19 20 21 22 23 24 25 26 27 28 29 30 31 32 33 34 35 36 37 38 39 40 41 42 43 44 45 46 47 48 49 50
000
ASUS43 KOAX 201210
RWRNE

WEATHER ROUNDUP FOR NEBRASKA
NATIONAL WEATHER SERVICE OMAHA NE
600 AM CST MON NOV 20 2017

NOTES: SATELLITE DATA IS BEING USED TO AUGMENT CLOUD COVER ABOVE
       12000 FEET.
       "FAIR" INDICATES FEW OR NO CLOUDS BELOW 12,000 FEET WITH NO
       SIGNIFICANT WEATHER AND/OR OBSTRUCTIONS TO VISIBILITY.


NEZ001>004-019>022-054>056-201300-
NEBRASKA PANHANDLE

CITY           SKY/WX    TMP DP  RH WIND       PRES   REMARKS
SCOTTSBLUFF    CLOUDY    49   7  18 W22G29    29.75F
6HR MIN TEMP:  38; 6HR MAX TEMP:  49;

ALLIANCE       CLOUDY    44  11  26 W17       29.71F
6HR MIN TEMP:  24; 6HR MAX TEMP:  44;

CHADRON        CLOUDY    36  17  46 SW5       29.68F WCI  32
6HR MIN TEMP:  21; 6HR MAX TEMP:  37;

GORDON         FAIR      41  15  35 W13       29.65F
6HR MIN TEMP:  30; 6HR MAX TEMP:  41;

KIMBALL        CLOUDY    40   7  24 NW10      29.80S WCI  34
SIDNEY         CLOUDY    33  13  43 W6        29.78F WCI  28
6HR MIN TEMP:  21; 6HR MAX TEMP:  35;

$$

NEZ057>060-069>072-079>082-201300-
SOUTHWEST NEBRASKA

CITY           SKY/WX    TMP DP  RH WIND       PRES   REMARKS
NORTH PLATTE   CLOUDY    20  16  84 NW3       29.77F
6HR MIN TEMP:  19; 6HR MAX TEMP:  29;

IMPERIAL       CLOUDY    24  15  68 W5        29.79F WCI  18
6HR MIN TEMP:  22; 6HR MAX TEMP:  37;

LEXINGTON      CLOUDY    23  18  82 NW5       29.76F WCI  17
MCCOOK         CLOUDY    28  21  75 W9        29.80S WCI  19
6HR MIN TEMP:  26; 6HR MAX TEMP:  41;

OGALLALA       CLOUDY    30  22  72 W15       29.77F WCI  19
$$

NEZ005>010-023>029-035>040-094-201300-
NORTH CENTRAL NEBRASKA

CITY           SKY/WX    TMP DP  RH WIND       PRES   REMARKS
VALENTINE      CLOUDY    35  18  49 SW12      29.64F WCI  27
6HR MIN TEMP:  30; 6HR MAX TEMP:  37;

AINSWORTH      CLOUDY    35  19  53 W12       29.64F WCI  26
BROKEN BOW     CLOUDY    38  19  46 W15       29.71F WCI  29
6HR MIN TEMP:  29; 6HR MAX TEMP:  38;

O`NEILL        CLOUDY    31  22  70 S6        29.65S WCI  25
ORD            CLOUDY    30  21  69 SW7       29.70F WCI  23
6HR MIN TEMP:  27; 6HR MAX TEMP:  38;

THEDFORD       CLOUDY    41  16  35 W15       29.69F
$$

NEZ041-046>049-061>064-073>077-083>087-201300-
SOUTH CENTRAL NEBRASKA

CITY           SKY/WX    TMP DP  RH WIND       PRES   REMARKS
GRAND ISLAND   CLEAR     36  26  67 SW13      29.75F WCI  27
6HR MIN TEMP:  36; 6HR MAX TEMP:  41;

AURORA         CLEAR     32  25  75 SW14      29.74F WCI  22
HASTINGS       CLOUDY    31  23  72 SW7       29.77F WCI  24
6HR MIN TEMP:  30; 6HR MAX TEMP:  40;

HEBRON         CLOUDY    38  23  53 SW9       29.82F WCI  32
HOLDREGE       CLOUDY    38  21  50 W6        29.77F WCI  33
KEARNEY        CLOUDY    34  22  61 SW10      29.77S WCI  26
YORK           PTCLDY    30  25  80 CALM      29.76S
$$

NEZ011>018-030>034-042>045-201300-
NORTHEAST NEBRASKA

CITY           SKY/WX    TMP DP  RH WIND       PRES   REMARKS
NORFOLK        CLOUDY    31  25  78 SW15      29.68F WCI  20
6HR MIN TEMP:  29; 6HR MAX TEMP:  38;

ALBION         CLOUDY    33  25  71 SW6       29.71S WCI  28
COLUMBUS       CLOUDY    28  23  81 S7        29.74F WCI  21
FREMONT        CLEAR     37  25  62 S3        29.75F
TEKAMAH        CLEAR     34  24  67 S12       29.74F WCI  25
6HR MIN TEMP:  30; 6HR MAX TEMP:  35;

WAYNE          CLOUDY    30  26  82 S10       29.67F WCI  21
$$

NEZ050>053-065>068-078-088>093-201300-
SOUTHEAST NEBRASKA

CITY           SKY/WX    TMP DP  RH WIND       PRES   REMARKS
LINCOLN        CLOUDY    36  24  62 SE6       29.80F WCI  31
6HR MIN TEMP:  32; 6HR MAX TEMP:  39;

OMAHA EPPLEY   PTCLDY    33  25  72 S13       29.79F WCI  24
6HR MIN TEMP:  32; 6HR MAX TEMP:  38;

BEATRICE       CLOUDY    37  24  60 S8        29.83F WCI  31
FALLS CITY     CLOUDY    41  26  55 S9        29.87S
6HR MIN TEMP:  40; 6HR MAX TEMP:  43;

NEBRASKA CITY  CLOUDY    37  27  68 SW15      29.82S WCI  28
PLATTSMOUTH    CLOUDY    37  27  66 S7        29.80F WCI  32
$$

NEZ044-045-051>053-067-201300-
OMAHA AREA

CITY           SKY/WX    TMP DP  RH WIND       PRES   REMARKS
OMAHA EPPLEY   PTCLDY    33  25  72 S13       29.79F WCI  24
6HR MIN TEMP:  32; 6HR MAX TEMP:  38;

FREMONT        CLEAR     37  25  62 S3        29.75F
MILLARD        CLEAR     38  26  61 SE5       29.79F WCI  35
OFFUTT AFB     CLEAR     26  22  84 E5        29.79F WCI  21
PLATTSMOUTH    CLOUDY    37  27  66 S7        29.80F WCI  32
WAHOO          FAIR      35  25  67 S9        29.76F WCI  27
$$



USA.gov is the U.S. government's official web portal to all federal, state and local government web resources and services.